If you wish to contribute or participate in the discussions about articles you are invited to join SKYbrary as a registered user

 Actions

Miho-Yonago Airport

From SKYbrary Wiki

RJOH
Airport
ICAO: RJOH – IATA: YGJ
Summary
Name Miho-Yonago Airport
Region Asia and Pacific
Territory Japan JP.gif
Location Yonago, Tottori Prefecture
Serving Yonago
Elevation 3.962 m
13 ft3.962 m
Coordinates 35° 30' 2.26" N, 133° 14' 42.42" E
Runways
Designator Length Width Surface ROPS
7/25 1999 m6,558.399 ft
45 m147.638 ft
ASP yes/yes


METAR
Observation RJOH 200400Z 23009KT 9999 -SHRA FEW015 SCT035 BKN050 12/04 Q1026
Station Miho Ab
Date/Time 20 November 2019 04:00:00
Wind direction 230°
Wind speed 09 kts
Lowest cloud amount few clouds
Temperature 12°C
Dew point 4°C
Humidity 58%
QNH 1026 hPa
Weather condition light showers rain

Miho Airbase, also known as Yonago Airport is a Japan Air Defense Force (JASDF) base located 11km5.94 nm
11,000 m
36,089.239 ft
northwest of Yonago in Tottori Prefecture. It is owned and operated by JASDF and shares the runway with civil activities.

Climatology

Humid Sub-tropical climate (Köppen climate classification Cfa)

Maps

Terrain

Loading map...

Airport Layout

Loading map...


Accidents & Serious Incidents at or in vicinity of RJOH

None on SKYbrary